sat.trackr.live / text

‹ back to catalog

STARLINK-11206 [DTC]

NORAD 60312 · 2024-133M

PAYLOAD ACTIVE UNKNOWN

§ Identity

Operator
Country
US
Launch date
2024-07-28
Launch site
AFWTR
Launch vehicle
Mass (kg)
RCS (m²)

Purposes: comms

External: N2YO · Heavens-Above · Gunter

§ Orbital elements

Epoch: 2026-05-25T02:50:46.176000Z

Period
91.74 min
Inclination
53.1587°
Eccentricity
0.0000761
Mean motion
15.69688468 rev/d
Perigee alt
359.3 km
Apogee alt
360.3 km
Semi-major
6,737.9 km
B*
1.9423e-5
RAAN
129.7783°
Arg perigee
67.8917°
Mean anomaly
292.2181°
Rev number
10,573

§ Raw data

STARLINK-11206 [DTC]1 60312U 24133M   26145.11859000  .00001764  00000+0  19423-4 0  99972 60312  53.1587 129.7783 0000761  67.8917 292.2181 15.69688468105734

JSON: /api/v1/satellites/60312 · /tle

For live sub-satellite position, see the globe view (requires WebGL).

§ Visibility from observer

Set your observer location to see the next 7 days of passes ≥ 10°. The values pass through the URL so the page stays shareable.

No JS? Fill the form by hand. The geolocation button needs JavaScript.